| time (UTC) | temp F | wind direction | speed MPH | gust MPH | rain 1hr in | rain 24hr in | rain mn in | humidity % | barometer mb |
| 20260505052452 | 55 | 235 | 3.0 | 3.0 | 0.00 | 0.00 | 0.00 | 89 | 1014.2 |
| 20260505051949 | 55 | 239 | 0.0 | 0.0 | 0.00 | 0.00 | 0.00 | 89 | 1014.3 |
| 20260505051446 | 55 | 215 | 4.0 | 4.0 | 0.00 | 0.00 | 0.00 | 89 | 1014.3 |
| 20260505050944 | 55 | 222 | 0.0 | 1.0 | 0.00 | 0.00 | 0.00 | 89 | 1014.3 |
| 20260505050442 | 54 | 200 | 4.0 | 6.0 | 0.00 | 0.00 | 0.00 | 89 | 1014.3 |
| 20260505041410 | 55 | 217 | 3.0 | 4.0 | 0.00 | 0.00 | 0.00 | 89 | 1014.0 |
| 20260505040907 | 55 | 222 | 3.0 | 4.0 | 0.00 | 0.00 | 0.00 | 89 | 1014.0 |
| 20260505040405 | 55 | 229 | 4.0 | 4.0 | 0.00 | 0.00 | 0.00 | 89 | 1013.8 |
| 20260505035901 | 55 | 241 | 4.0 | 4.0 | 0.00 | 0.00 | 0.00 | 89 | 1014.0 |
| 20260505035357 | 55 | 228 | 3.0 | 4.0 | 0.00 | 0.00 | 0.00 | 89 | 1014.0 |
| 20260505034855 | 55 | 208 | 3.0 | 4.0 | 0.00 | 0.00 | 0.00 | 89 | 1013.9 |
| 20260505034351 | 55 | 215 | 4.0 | 4.0 | 0.00 | 0.00 | 0.00 | 89 | 1013.9 |
| 20260505033848 | 55 | 225 | 3.0 | 3.0 | 0.00 | 0.00 | 0.00 | 89 | 1013.8 |
| 20260505033345 | 55 | 201 | 0.0 | 0.0 | 0.00 | 0.00 | 0.00 | 89 | 1013.9 |
| 20260505032843 | 55 | 231 | 4.0 | 4.0 | 0.00 | 0.00 | 0.00 | 88 | 1013.7 |
| 20260505032339 | 55 | 202 | 0.0 | 1.0 | 0.00 | 0.00 | 0.00 | 89 | 1013.5 |
| 20260505031836 | 55 | 169 | 5.0 | 7.0 | 0.00 | 0.00 | 0.00 | 89 | 1013.8 |
| 20260505031333 | 55 | 219 | 1.0 | 2.0 | 0.00 | 0.00 | 0.00 | 88 | 1013.8 |
| 20260505030830 | 55 | 215 | 3.0 | 6.0 | 0.00 | 0.00 | 0.00 | 89 | 1013.5 |
| 20260505030326 | 55 | 243 | 5.0 | 6.0 | 0.00 | 0.00 | 0.00 | 88 | 1013.6 |
| 20260505025822 | 55 | 206 | 4.0 | 6.0 | 0.00 | 0.00 | 0.00 | 88 | 1013.6 |
| 20260505025320 | 55 | 211 | 3.0 | 4.0 | 0.00 | 0.00 | 0.00 | 88 | 1013.7 |
| 20260505024818 | 55 | 198 | 4.0 | 7.0 | 0.00 | 0.00 | 0.00 | 88 | 1013.5 |
| 20260505024315 | 55 | 209 | 3.0 | 3.0 | 0.00 | 0.00 | 0.00 | 88 | 1013.4 |
| 20260505023812 | 55 | 196 | 4.0 | 7.0 | 0.00 | 0.00 | 0.00 | 88 | 1013.6 |
| 20260505023309 | 55 | 214 | 6.0 | 7.0 | 0.00 | 0.00 | 0.00 | 88 | 1013.6 |
| 20260505022807 | 55 | 228 | 3.0 | 3.0 | 0.00 | 0.00 | 0.00 | 88 | 1013.8 |
| 20260505022304 | 55 | 218 | 4.0 | 4.0 | 0.00 | 0.00 | 0.00 | 88 | 1013.7 |
| 20260505021800 | 56 | 227 | 0.0 | 0.0 | 0.00 | 0.00 | 0.00 | 88 | 1013.7 |
| 20260505021257 | 55 | 208 | 3.0 | 4.0 | 0.00 | 0.00 | 0.00 | 88 | 1013.8 |
| 20260505020753 | 55 | 227 | 3.0 | 4.0 | 0.00 | 0.00 | 0.00 | 88 | 1013.5 |
| 20260505020248 | 55 | 203 | 5.0 | 6.0 | 0.00 | 0.00 | 0.00 | 88 | 1013.9 |
| 20260505015746 | 55 | 223 | 2.0 | 4.0 | 0.00 | 0.00 | 0.00 | 88 | 1013.7 |
| 20260505015242 | 56 | 200 | 5.0 | 7.0 | 0.00 | 0.00 | 0.00 | 88 | 1013.8 |
| 20260505014740 | 56 | 208 | 2.0 | 3.0 | 0.00 | 0.00 | 0.00 | 88 | 1013.7 |
| 20260505014237 | 56 | 209 | 4.0 | 6.0 | 0.00 | 0.00 | 0.00 | 88 | 1014.0 |
| 20260505013733 | 56 | 208 | 4.0 | 4.0 | 0.00 | 0.00 | 0.00 | 88 | 1013.9 |
| 20260505013231 | 56 | 208 | 3.0 | 4.0 | 0.00 | 0.00 | 0.00 | 88 | 1013.7 |
| 20260505012729 | 56 | 206 | 5.0 | 6.0 | 0.00 | 0.00 | 0.00 | 88 | 1013.9 |
| 20260505012226 | 56 | 194 | 2.0 | 6.0 | 0.00 | 0.00 | 0.00 | 88 | 1013.8 |
| 20260505011721 | 56 | 233 | 4.0 | 7.0 | 0.00 | 0.00 | 0.00 | 88 | 1013.9 |
| 20260505011219 | 56 | 198 | 5.0 | 8.0 | 0.00 | 0.00 | 0.00 | 88 | 1013.8 |
| 20260505010714 | 56 | 204 | 4.0 | 6.0 | 0.00 | 0.00 | 0.00 | 87 | 1014.0 |
| 20260505010211 | 56 | 221 | 3.0 | 4.0 | 0.00 | 0.00 | 0.00 | 87 | 1014.2 |
| 20260505005707 | 56 | 192 | 4.0 | 6.0 | 0.00 | 0.00 | 0.00 | 87 | 1013.9 |
| 20260505005205 | 56 | 217 | 3.0 | 3.0 | 0.00 | 0.00 | 0.00 | 87 | 1014.2 |
| 20260505004702 | 56 | 218 | 4.0 | 4.0 | 0.00 | 0.00 | 0.00 | 87 | 1014.2 |
| 20260505004158 | 56 | 225 | 5.0 | 7.0 | 0.00 | 0.00 | 0.00 | 87 | 1014.2 |
| 20260505003655 | 56 | 210 | 5.0 | 7.0 | 0.00 | 0.00 | 0.00 | 87 | 1014.3 |
| 20260505003153 | 57 | 214 | 4.0 | 4.0 | 0.00 | 0.00 | 0.00 | 87 | 1014.2 |
| 20260505002649 | 57 | 194 | 3.0 | 4.0 | 0.00 | 0.00 | 0.00 | 87 | 1014.2 |
| 20260505002147 | 57 | 203 | 3.0 | 6.0 | 0.00 | 0.00 | 0.00 | 87 | 1014.4 |
| 20260505001644 | 57 | 205 | 6.0 | 8.0 | 0.00 | 0.00 | 0.00 | 86 | 1014.3 |
| 20260505001141 | 57 | 192 | 3.0 | 6.0 | 0.00 | 0.00 | 0.00 | 87 | 1014.2 |
| 20260505000638 | 57 | 205 | 5.0 | 7.0 | 0.00 | 0.00 | 0.00 | 86 | 1014.2 |
| 20260505000137 | 57 | 195 | 4.0 | 6.0 | 0.00 | 0.00 | 0.00 | 86 | 1014.3 |
| 20260504235632 | 57 | 200 | 3.0 | 4.0 | 0.00 | 0.00 | 0.00 | 86 | 1014.3 |
| 20260504235129 | 57 | 217 | 5.0 | 6.0 | 0.00 | 0.00 | 0.00 | 86 | 1014.5 |
| 20260504234626 | 57 | 178 | 4.0 | 4.0 | 0.00 | 0.00 | 0.00 | 86 | 1014.4 |
| 20260504234124 | 57 | 224 | 1.0 | 2.0 | 0.00 | 0.00 | 0.00 | 86 | 1014.3 |
| 20260504233619 | 57 | 197 | 4.0 | 6.0 | 0.00 | 0.00 | 0.00 | 86 | 1014.4 |
| 20260504233115 | 57 | 206 | 3.0 | 4.0 | 0.00 | 0.00 | 0.00 | 86 | 1014.5 |
| 20260504232613 | 57 | 205 | 5.0 | 7.0 | 0.00 | 0.00 | 0.00 | 86 | 1014.4 |
| 20260504232110 | 57 | 196 | 4.0 | 4.0 | 0.00 | 0.00 | 0.00 | 86 | 1014.4 |
| 20260504231606 | 57 | 216 | 4.0 | 6.0 | 0.00 | 0.00 | 0.00 | 85 | 1014.1 |
| 20260504231102 | 57 | 217 | 3.0 | 6.0 | 0.00 | 0.00 | 0.00 | 85 | 1014.3 |
| 20260504230558 | 57 | 194 | 4.0 | 4.0 | 0.00 | 0.00 | 0.00 | 85 | 1014.3 |
| 20260504230058 | 57 | 191 | 4.0 | 6.0 | 0.00 | 0.00 | 0.00 | 85 | 1014.2 |
| 20260504225555 | 58 | 229 | 5.0 | 7.0 | 0.00 | 0.00 | 0.00 | 85 | 1014.3 |
| 20260504225052 | 57 | 198 | 3.0 | 4.0 | 0.00 | 0.00 | 0.00 | 85 | 1014.4 |
| 20260504224548 | 58 | 210 | 4.0 | 4.0 | 0.00 | 0.00 | 0.00 | 85 | 1014.5 |
| 20260504224046 | 57 | 213 | 4.0 | 4.0 | 0.00 | 0.00 | 0.00 | 85 | 1014.4 |
| 20260504223543 | 58 | 195 | 4.0 | 6.0 | 0.00 | 0.00 | 0.00 | 85 | 1014.5 |
| 20260504223038 | 58 | 205 | 4.0 | 7.0 | 0.00 | 0.00 | 0.00 | 85 | 1014.5 |
| 20260504222535 | 58 | 194 | 4.0 | 8.0 | 0.00 | 0.00 | 0.00 | 85 | 1014.5 |
| 20260504222033 | 58 | 190 | 6.0 | 9.0 | 0.00 | 0.00 | 0.00 | 85 | 1014.6 |
| 20260504221530 | 58 | 226 | 5.0 | 7.0 | 0.00 | 0.00 | 0.00 | 85 | 1014.4 |
| 20260504221026 | 58 | 210 | 3.0 | 4.0 | 0.00 | 0.00 | 0.00 | 85 | 1014.4 |
| 20260504220523 | 58 | 217 | 3.0 | 6.0 | 0.00 | 0.00 | 0.00 | 85 | 1014.4 |
| 20260504220020 | 58 | 196 | 5.0 | 9.0 | 0.00 | 0.00 | 0.00 | 84 | 1014.5 |
| 20260504215516 | 58 | 201 | 4.0 | 6.0 | 0.00 | 0.00 | 0.00 | 84 | 1014.6 |
| 20260504215014 | 58 | 216 | 3.0 | 6.0 | 0.00 | 0.00 | 0.00 | 84 | 1014.4 |
| 20260504214510 | 58 | 212 | 4.0 | 8.0 | 0.00 | 0.00 | 0.00 | 85 | 1014.4 |
| 20260504214006 | 58 | 199 | 2.0 | 3.0 | 0.00 | 0.00 | 0.00 | 85 | 1014.6 |
| 20260504213502 | 59 | 222 | 1.0 | 3.0 | 0.00 | 0.00 | 0.00 | 85 | 1014.5 |
| 20260504213000 | 58 | 202 | 3.0 | 4.0 | 0.00 | 0.00 | 0.00 | 85 | 1014.6 |
| 20260504212456 | 58 | 219 | 3.0 | 7.0 | 0.00 | 0.00 | 0.00 | 85 | 1014.4 |
| 20260504211953 | 58 | 210 | 4.0 | 8.0 | 0.00 | 0.00 | 0.00 | 85 | 1014.6 |
| 20260504211450 | 59 | 192 | 4.0 | 9.0 | 0.00 | 0.00 | 0.00 | 85 | 1014.5 |
| 20260504210947 | 58 | 193 | 5.0 | 10.0 | 0.00 | 0.00 | 0.00 | 85 | 1014.6 |
| 20260504210444 | 59 | 201 | 5.0 | 11.0 | 0.00 | 0.00 | 0.00 | 85 | 1014.5 |
| 20260504205941 | 59 | 214 | 2.0 | 4.0 | 0.00 | 0.00 | 0.00 | 85 | 1014.6 |
| 20260504205438 | 58 | 186 | 4.0 | 6.0 | 0.00 | 0.00 | 0.00 | 86 | 1014.7 |
| 20260504204937 | 59 | 213 | 3.0 | 7.0 | 0.00 | 0.00 | 0.00 | 86 | 1014.8 |
| 20260504204434 | 58 | 198 | 6.0 | 9.0 | 0.00 | 0.00 | 0.00 | 85 | 1014.5 |
| 20260504203934 | 58 | 217 | 5.0 | 8.0 | 0.00 | 0.00 | 0.00 | 86 | 1014.6 |
| 20260504203431 | 58 | 202 | 6.0 | 9.0 | 0.00 | 0.00 | 0.00 | 86 | 1014.5 |
| 20260504202927 | 58 | 227 | 6.0 | 7.0 | 0.00 | 0.00 | 0.00 | 86 | 1014.6 |
| 20260504202423 | 58 | 199 | 6.0 | 8.0 | 0.00 | 0.00 | 0.00 | 86 | 1014.7 |
| 20260504201920 | 58 | 195 | 5.0 | 7.0 | 0.00 | 0.00 | 0.00 | 87 | 1014.7 |
| 20260504201418 | 58 | 198 | 5.0 | 8.0 | 0.00 | 0.00 | 0.00 | 86 | 1014.7 |
| 20260504200915 | 58 | 214 | 8.0 | 10.0 | 0.00 | 0.00 | 0.00 | 86 | 1014.5 |
| 20260504200411 | 58 | 208 | 8.0 | 11.0 | 0.00 | 0.00 | 0.00 | 86 | 1014.6 |
| 20260504195908 | 58 | 208 | 6.0 | 8.0 | 0.00 | 0.00 | 0.00 | 86 | 1014.5 |
| 20260504195404 | 58 | 221 | 5.0 | 7.0 | 0.00 | 0.00 | 0.00 | 87 | 1014.6 |
| 20260504194901 | 58 | 201 | 5.0 | 8.0 | 0.00 | 0.00 | 0.00 | 87 | 1014.8 |
| 20260504194356 | 58 | 193 | 6.0 | 9.0 | 0.00 | 0.00 | 0.00 | 88 | 1014.5 |
| 20260504193853 | 58 | 214 | 3.0 | 6.0 | 0.00 | 0.00 | 0.00 | 88 | 1014.5 |
| 20260504193350 | 58 | 198 | 4.0 | 7.0 | 0.00 | 0.00 | 0.00 | 88 | 1014.6 |
| 20260504192849 | 58 | 187 | 6.0 | 10.0 | 0.00 | 0.00 | 0.00 | 87 | 1014.4 |
| 20260504192346 | 58 | 204 | 5.0 | 8.0 | 0.00 | 0.00 | 0.00 | 88 | 1014.5 |
| 20260504191844 | 58 | 206 | 5.0 | 7.0 | 0.00 | 0.00 | 0.00 | 87 | 1014.4 |
| 20260504191342 | 58 | 200 | 6.0 | 9.0 | 0.00 | 0.00 | 0.00 | 88 | 1014.5 |
| 20260504190837 | 58 | 186 | 6.0 | 8.0 | 0.00 | 0.00 | 0.00 | 88 | 1014.5 |
| 20260504190333 | 57 | 192 | 4.0 | 7.0 | 0.00 | 0.00 | 0.00 | 88 | 1014.4 |
| 20260504185830 | 58 | 177 | 4.0 | 8.0 | 0.00 | 0.00 | 0.00 | 88 | 1014.5 |
| 20260504185327 | 58 | 197 | 4.0 | 6.0 | 0.00 | 0.00 | 0.00 | 89 | 1014.5 |
| 20260504184823 | 57 | 195 | 6.0 | 9.0 | 0.00 | 0.00 | 0.00 | 88 | 1014.4 |
| 20260504184319 | 57 | 195 | 6.0 | 9.0 | 0.00 | 0.00 | 0.00 | 89 | 1014.7 |
| 20260504183815 | 57 | 201 | 6.0 | 10.0 | 0.00 | 0.00 | 0.00 | 89 | 1014.5 |
| 20260504183312 | 57 | 195 | 6.0 | 7.0 | 0.00 | 0.00 | 0.00 | 89 | 1014.4 |
| 20260504182810 | 57 | 197 | 6.0 | 9.0 | 0.00 | 0.00 | 0.00 | 89 | 1014.7 |
| 20260504182307 | 57 | 200 | 5.0 | 7.0 | 0.00 | 0.00 | 0.00 | 89 | 1014.5 |
| 20260504181804 | 57 | 202 | 5.0 | 8.0 | 0.00 | 0.00 | 0.00 | 90 | 1014.4 |
| 20260504181302 | 57 | 199 | 3.0 | 4.0 | 0.00 | 0.00 | 0.00 | 90 | 1014.5 |
| 20260504180801 | 57 | 190 | 7.0 | 10.0 | 0.00 | 0.00 | 0.00 | 89 | 1014.3 |
| 20260504180259 | 57 | 193 | 6.0 | 10.0 | 0.00 | 0.00 | 0.00 | 90 | 1014.3 |
| 20260504175756 | 57 | 189 | 5.0 | 8.0 | 0.00 | 0.00 | 0.00 | 90 | 1014.3 |
| 20260504175253 | 57 | 180 | 5.0 | 8.0 | 0.00 | 0.00 | 0.00 | 91 | 1014.3 |
| 20260504174751 | 56 | 213 | 7.0 | 10.0 | 0.00 | 0.00 | 0.00 | 90 | 1014.3 |
| 20260504174249 | 56 | 175 | 3.0 | 6.0 | 0.00 | 0.00 | 0.00 | 91 | 1014.3 |
| 20260504173745 | 56 | 181 | 5.0 | 8.0 | 0.00 | 0.00 | 0.00 | 91 | 1014.2 |
| 20260504173242 | 57 | 190 | 6.0 | 11.0 | 0.00 | 0.00 | 0.00 | 91 | 1014.2 |
| 20260504172739 | 56 | 197 | 5.0 | 7.0 | 0.00 | 0.00 | 0.00 | 91 | 1014.4 |
| 20260504172235 | 56 | 192 | 6.0 | 11.0 | 0.00 | 0.00 | 0.00 | 91 | 1014.3 |
| 20260504171731 | 56 | 187 | 8.0 | 13.0 | 0.00 | 0.00 | 0.00 | 91 | 1014.1 |
| 20260504171228 | 56 | 182 | 5.0 | 8.0 | 0.00 | 0.00 | 0.00 | 91 | 1014.2 |
| 20260504170725 | 56 | 183 | 7.0 | 14.0 | 0.00 | 0.00 | 0.00 | 92 | 1014.2 |
| 20260504170223 | 56 | 193 | 5.0 | 8.0 | 0.00 | 0.00 | 0.00 | 92 | 1014.1 |
| 20260504160141 | 55 | 171 | 6.0 | 9.0 | 0.00 | 0.00 | 0.00 | 93 | 1013.7 |
| 20260504151108 | 54 | 191 | 3.0 | 3.0 | 0.00 | 0.00 | 0.00 | 94 | 1013.0 |
| 20260504150606 | 54 | 189 | 2.0 | 3.0 | 0.00 | 0.00 | 0.00 | 94 | 1013.2 |
| 20260504150103 | 54 | 195 | 2.0 | 2.0 | 0.00 | 0.00 | 0.00 | 94 | 1013.1 |
| 20260504141032 | 54 | 186 | 2.0 | 3.0 | 0.00 | 0.00 | 0.00 | 94 | 1012.7 |
| 20260504140528 | 54 | 196 | 2.0 | 3.0 | 0.00 | 0.00 | 0.00 | 95 | 1012.6 |
| 20260504130453 | 53 | 166 | 11.0 | 14.0 | 0.00 | 0.00 | 0.00 | 94 | 1012.2 |
| 20260504110340 | 53 | 212 | 8.0 | 13.0 | 0.00 | 0.00 | 0.00 | 93 | 1011.5 |
| 20260504100257 | 53 | 172 | 11.0 | 13.0 | 0.00 | 0.00 | 0.00 | 92 | 1011.5 |
| 20260504081650 | 48 | 177 | 2.0 | 3.0 | 0.00 | 0.00 | 0.00 | 86 | 1010.6 |
| 20260504081147 | 50 | 176 | 1.0 | 2.0 | 0.00 | 0.00 | 0.00 | 85 | 1010.6 |
| 20260504080643 | 49 | 151 | 0.0 | 0.0 | 0.00 | 0.00 | 0.00 | 85 | 1010.3 |
| 20260504080139 | 49 | 46 | 0.0 | 0.0 | 0.00 | 0.00 | 0.00 | 86 | 1010.1 |
| 20260504070108 | 51 | 47 | 0.0 | 0.0 | 0.00 | 0.00 | 0.00 | 83 | 1010.1 |